CAPE
196 301 302 742 1034 1047 1130 1555 1633 1595 628 89 152 511 1269 1522 2127 2282 2476 2239 1988 1549
34 188 310 493 641 819 1323 1474 1189 1658 1017 61 0 0 0 797 1464 2297 2416 2341 2168 2206
61 31 334 238 756 997 1385 1274 1329 1835 1063 111 0 0 349 727 147 1871 2556 2612 2553 2171
167 67 68 120 130 147 356 875 855 1323 1339 472 252 38 0 2 1 1296 2205 2334 2135 1646
74 79 80 130 79 86 89 94 218 974 1071 576 100 0 0 0 1 794 1401 1359 1349 1285
9 99 50 31 34 59 8 22 18 123 350 427 211 68 380 221 535 295 384 588 747 799
13 44 126 92 0 1 11 4 0 22 13 198 146 39 154 332 282 53 73 158 337 366
6 0 40 6 0 0 0 0 1 0 14 99 293 126 92 47 315 426 464 389 282 185
0 0 0 22 0 0 15 0 0 0 80 204 5 203 101 325 198 244 286 391 187 186
11 8 7 0 28 8 0 0 0 0 1 0 2 127 120 56 215 198 345 434 405 254
8 19 22 17 3 46 15 0 0 0 0 0 6 3 74 103 186 416 761 694 639 838
1 2 0 2 38 27 61 34 0 0 0 0 1 2 0 0 29 148 54 519 1029 961
0 0 1 0 0 13 13 32 44 0 0 0 0 0 0 0 59 110 24 0 962 1134
5 0 0 0 0 0 4 16 14 26 11 0 0 55 31 0 4 30 254 36 184 474
CIN
-61 -47 -59 -12 -16 -35 -48 -35 -44 -48 -79 -186 -6 -151 -12 -1 -7 -13 -47 -70 -64 -64
-38 -19 -25 -25 -28 -27 -16 -20 -58 -43 -62 -173 0 0 0 -8 -2 -15 -33 -53 -48 -36
-7 -14 -8 -38 -13 -9 -2 -11 -34 -29 -57 -153 0 0 -120 -6 -137 -5 -4 -6 -5 -19
-13 -27 -47 -50 -59 -79 -59 -17 -49 -30 -26 -63 -45 -54 0 -40 -4 -1 -4 -4 -4 -29
-8 -17 -32 -23 -54 -64 -79 -97 -83 -14 -9 -36 -98 0 0 0 -3 -3 -3 -24 -20 -6
-20 -9 -8 -44 -78 -89 -54 -114 -133 -73 -22 -13 -45 -93 -25 -110 -5 -35 -55 -39 -58 -57
-11 -4 -6 -20 -1 -12 -127 -79 0 -84 -43 -7 -20 -43 -40 -17 -40 -183 -185 -131 -78 -114
-5 -4 -5 -29 -1 0 0 0 -51 0 -93 -77 -6 -24 -25 -47 -39 -56 -72 -88 -109 -114
0 0 0 -3 -2 0 -160 0 0 0 -149 -34 -154 -97 -16 -6 -35 -52 -65 -35 -96 -86
-1 -1 -1 -0 -6 -23 0 -37 0 0 -42 0 -9 -24 -35 -71 -15 -31 -26 -26 -23 -44
-7 -1 -3 -1 -8 -8 -27 0 0 0 0 -25 -27 -25 -92 -93 -48 -39 -9 -6 -8 -12
-24 -43 0 -3 -2 -5 -5 -39 0 0 0 0 -123 -56 0 0 -101 -50 -53 -38 -10 -11
0 0 -32 0 0 -13 -20 -8 -3 -0 0 0 0 0 0 0 -95 -65 -12 -4 -8 -5
-8 0 0 0 0 0 -6 -19 -13 -2 -2 0 -2 -79 -100 0 -80 -64 -25 -31 -27 -17
Wind_Speed
35 35 36 36 36 39 41 46 49 41 37 34 34 34 35 43 37 28 25 21 20 20
36 37 36 38 40 41 42 44 49 48 39 33 36 46 44 41 32 27 23 21 18 19
33 36 37 38 40 40 41 45 49 49 40 42 40 40 42 46 35 26 24 20 19 18
30 32 35 38 38 39 40 44 48 49 46 40 35 34 44 44 52 16 13 15 16 17
35 33 34 35 36 37 40 41 47 46 44 41 43 41 41 40 56 22 12 15 16 18
35 36 34 35 35 34 36 40 45 43 44 39 36 31 26 23 29 24 18 15 15 19
36 34 35 37 38 37 35 37 41 41 47 31 32 29 23 22 26 24 22 22 24 21
37 40 34 33 33 36 39 39 40 36 41 41 27 28 28 25 21 20 20 21 18 16
40 40 39 33 28 29 34 40 42 40 34 37 31 30 22 19 18 17 18 15 15 17
41 41 39 39 32 27 31 39 44 44 39 34 38 42 40 31 22 21 21 16 15 15
45 44 42 39 39 31 27 31 33 36 42 43 39 35 34 26 28 29 21 16 19 15
49 48 47 47 36 37 34 28 31 37 42 47 46 44 40 35 29 34 39 33 17 22
47 48 50 47 45 42 39 41 33 33 36 37 43 44 48 42 36 33 33 60 30 19
47 44 49 45 46 48 44 44 44 42 39 43 42 40 40 42 48 42 33 38 48 42
Wind_Direction
298 294 291 288 285 283 281 278 279 284 278 283 275 278 269 259 246 244 252 260 270 277
299 296 294 292 289 286 285 282 280 282 278 272 258 256 253 254 237 237 246 255 263 276
301 300 299 299 294 289 287 283 282 282 282 280 278 273 266 265 257 253 246 257 266 276
311 309 305 301 299 296 293 288 283 282 283 280 278 272 279 295 278 262 233 263 268 280
311 307 307 306 304 300 296 294 289 283 280 278 277 277 281 291 271 300 278 273 282 289
306 306 307 307 306 306 302 295 293 289 285 275 273 277 278 241 263 282 282 285 284 294
306 307 301 301 303 304 305 302 284 296 294 272 274 274 273 266 267 274 278 281 284 291
305 301 305 305 307 302 297 296 291 290 287 291 275 271 269 268 266 272 274 278 282 284
302 302 301 305 306 309 300 287 282 280 286 288 281 288 273 271 275 279 284 280 280 282
300 299 299 299 302 301 302 288 281 279 274 282 269 263 270 268 273 275 275 271 270 270
298 296 295 295 295 299 295 294 288 284 279 270 273 279 281 288 280 274 272 269 267 269
291 292 292 294 292 289 292 289 289 282 276 267 265 270 274 277 282 274 266 260 252 259
293 290 286 286 288 289 283 284 285 283 278 278 268 272 264 268 272 273 266 236 254 249
289 292 285 286 282 279 282 279 277 277 276 271 269 271 270 267 259 264 267 266 247 257